Location: Unspecified
(35.6961°N, 0.0000°E)
Time: 15:10:54
(UTC+00:00)

S-56A Canister/Altair - Pass Details

Date: 29 May 2019
Orbit: 633 x 2499 km, 38.9° (Epoch: 18 June)

Event Time Altitude Azimuth Distance (km) Brightness Sun altitude
Rises 07:16:12 0° 279° (W) 4,706 11.0 28.0°
Reaches altitude 10° 07:19:59 10° 265° (W) 4,019 10.7 28.8°
Maximum altitude 07:27:41 22° 220° (SW) 3,644 10.8 30.3°
Drops below altitude 10° 07:37:05 10° 177° (S) 4,968 11.7 32.2°
Sets 07:42:36 0° 164° (SSE) 6,116 12.3 33.3°
